Change the Weather History Date:

Monday, October 10, 2011

  Actual Average Record
Temperature  
Mean Temperature 76 °F -  
Max Temperature 87 °F 86 °F - ()
Min Temperature 66 °F 70 °F - ()
Cooling Degree Days 12    
Growing Degree Days 26 (Base 50)    
Moisture  
Dew Point 69 °F    
Average Humidity 79    
Maximum Humidity 100    
Minimum Humidity 37    
Precipitation  
Precipitation 0.00 in 0.08 in - ()
Sea Level Pressure  
Sea Level Pressure 29.82 in    
Wind  
Wind Speed 5 mph ()    
Max Wind Speed 15 mph    
Max Gust Speed -    
Visibility 6.7 miles    
Events      
T = Trace of Precipitation, MM = Missing Value Source: Averaged Metar Reports

Daily Weather History Graph

Daily Weather History Graph

Search for Another Location

Airport or City:

Trip Planner

Search our weather history database for the weather conditions in past years. The results will help you decide how hot, cold, wet, or windy it might be!

Date:

Astronomy

Oct. 10, 2011 Rise Set
Actual Time 5:53 AM AEST 6:15 PM AEST
Civil Twilight 5:31 AM AEST 6:37 PM AEST
Nautical Twilight 5:05 AM AEST 7:02 PM AEST
Astronomical Twilight 4:40 AM AEST 7:28 PM AEST
Moon 4:48 PM AEST (10/10) 4:21 AM AEST (10/10)
Length of Visible Light 13h 06m
Length of Day
12h 22m
Waxing Gibbous, 96% of the Moon is Illuminated
Oct 10
Waxing Gibbous
Oct 12
Full
Oct 20
Last Quarter
Oct 27
New
Nov 3
First Quarter

Hourly Weather History & Observations

Time (AEST) Temp. Heat Index Dew Point Humidity Pressure Visibility Wind Dir Wind Speed Gust Speed Precip Events Conditions
12:00 AM 69 °F - 66 °F 88% 29.83 in 12 mi West 4.6 mph - -   Partly Cloudy
12:00 AM 69.8 °F - 66.2 °F 88% 29.83 in 6.2 mi West 4.6 mph - N/A   Partly Cloudy
12:30 AM 68.0 °F - 66.2 °F 94% 29.83 in 6.2 mi West 4.6 mph - N/A   Scattered Clouds
1:00 AM 69 °F - 66 °F 86% 29.82 in - West 5.8 mph - -  
1:00 AM 69.8 °F - 66.2 °F 88% 29.80 in 6.2 mi West 5.8 mph - N/A   Mostly Cloudy
1:23 AM 69.8 °F - 66.2 °F 88% 29.80 in 6.2 mi West 5.8 mph - N/A   Mostly Cloudy
1:30 AM 69.8 °F - 64.4 °F 83% 29.80 in 6.2 mi West 3.5 mph - N/A   Scattered Clouds
2:00 AM 69.8 °F - 66.2 °F 88% 29.80 in 6.2 mi Calm Calm - N/A   Partly Cloudy
2:30 AM 68.0 °F - 66.2 °F 94% 29.77 in 6.2 mi West 1.2 mph - N/A   Partly Cloudy
3:00 AM 69 °F - 66 °F 86% 29.79 in 9 mi Calm Calm - -   Partly Cloudy
3:00 AM 68.0 °F - 66.2 °F 94% 29.77 in 6.2 mi Calm Calm - N/A   Partly Cloudy
3:30 AM 68.0 °F - 66.2 °F 94% 29.77 in 6.2 mi Calm Calm - N/A   Partly Cloudy
4:00 AM 68 °F - 66 °F 92% 29.80 in - Calm Calm - -  
4:00 AM 68.0 °F - 66.2 °F 94% 29.77 in 6.2 mi Calm Calm - N/A   Partly Cloudy
4:30 AM 68.0 °F - 66.2 °F 94% 29.80 in 6.2 mi Calm Calm - N/A   Partly Cloudy
5:00 AM 68.0 °F - 66.2 °F 94% 29.80 in 6.2 mi Calm Calm - N/A   Scattered Clouds
5:06 AM 66.2 °F - 66.2 °F 100% 29.80 in 6.2 mi Calm Calm - N/A   Mostly Cloudy
5:30 AM 66.2 °F - 64.4 °F 94% 29.83 in 6.2 mi NNE 1.2 mph - N/A   Partly Cloudy
6:00 AM 67 °F - 66 °F 96% 29.84 in 9 mi Calm Calm - -   Partly Cloudy
6:00 AM 66.2 °F - 66.2 °F 100% 29.83 in 6.2 mi Calm Calm - N/A   Partly Cloudy
6:30 AM 68.0 °F - 66.2 °F 94% 29.83 in 6.2 mi Calm Calm - N/A   Partly Cloudy
7:00 AM 71 °F - 69 °F 90% 29.87 in - SE 1.2 mph - -  
7:00 AM 71.6 °F - 68.0 °F 88% 29.86 in 6.2 mi SE 1.2 mph - N/A   Partly Cloudy
7:30 AM 75.2 °F - 68.0 °F 78% 29.86 in 6.2 mi SE 6.9 mph - N/A   Partly Cloudy
8:00 AM 78.8 °F - 68.0 °F 69% 29.89 in 6.2 mi SE 6.9 mph - N/A   Partly Cloudy
8:30 AM 78.8 °F - 66.2 °F 65% 29.89 in 6.2 mi SE 6.9 mph - N/A   Partly Cloudy
9:00 AM 82 °F - 66 °F 50% 29.89 in 9 mi ESE 6.9 mph - -   Haze
9:00 AM 82.4 °F 84.6 °F 66.2 °F 58% 29.89 in - ESE 6.9 mph - N/A   Clear
9:30 AM 86.0 °F 88.2 °F 66.2 °F 51% 29.89 in - ESE 6.9 mph - N/A   Clear
10:00 AM 87 °F - 65 °F 37% 29.88 in - SE 8.1 mph - -  
10:00 AM 86.0 °F 87.3 °F 64.4 °F 48% 29.86 in - SE 8.1 mph - N/A   Clear
10:30 AM 86.0 °F 89.4 °F 68.0 °F 55% 29.86 in - NE 10.4 mph - N/A   Clear
11:00 AM 86.0 °F 89.4 °F 68.0 °F 55% 29.86 in - North 8.1 mph - N/A   Clear
11:30 AM 84.2 °F 87.3 °F 68.0 °F 58% 29.86 in - North 9.2 mph - N/A   Clear
12:00 PM 85 °F - 72 °F 57% 29.85 in 9 mi NNE 10.4 mph - -   Haze
12:00 PM 84.2 °F 89.6 °F 71.6 °F 66% 29.83 in - NNE 10.4 mph - N/A   Clear
12:30 PM 84.2 °F 89.6 °F 71.6 °F 66% 29.83 in 6.2 mi NNE 12.7 mph - N/A   Partly Cloudy
1:00 PM 84 °F - 72 °F 61% 29.83 in - North 12.7 mph - -  
1:00 PM 84.2 °F 90.9 °F 73.4 °F 70% 29.80 in 6.2 mi North 12.7 mph - N/A   Partly Cloudy
1:30 PM 84.2 °F 90.9 °F 73.4 °F 70% 29.80 in 6.2 mi NNE 10.4 mph - N/A   Scattered Clouds
2:00 PM 84.2 °F 89.6 °F 71.6 °F 66% 29.77 in 6.2 mi North 10.4 mph - N/A   Partly Cloudy
2:30 PM 84.2 °F 89.6 °F 71.6 °F 66% 29.77 in 6.2 mi North 11.5 mph - N/A   Partly Cloudy
3:00 PM 83 °F - 73 °F 64% 29.76 in 9 mi North 15.0 mph - -   Haze
3:00 PM 84.2 °F 90.9 °F 73.4 °F 70% 29.74 in 6.2 mi North 15.0 mph - N/A   Partly Cloudy
3:30 PM 82.4 °F 88.2 °F 73.4 °F 74% 29.74 in 6.2 mi North 15.0 mph - N/A   Partly Cloudy
4:00 PM 82 °F - 74 °F 69% 29.77 in - North 12.7 mph - -  
4:00 PM 82.4 °F 88.2 °F 73.4 °F 74% 29.77 in 6.2 mi North 12.7 mph - N/A   Partly Cloudy
4:30 PM 80.6 °F 86.2 °F 75.2 °F 84% 29.77 in 6.2 mi North 12.7 mph - N/A   Partly Cloudy
5:00 PM 80.6 °F 85.4 °F 73.4 °F 79% 29.77 in 6.2 mi North 11.5 mph - N/A   Partly Cloudy
5:30 PM 80.6 °F 85.4 °F 73.4 °F 79% 29.77 in 6.2 mi North 9.2 mph - N/A   Scattered Clouds
6:00 PM 78.8 °F - 73.4 °F 83% 29.77 in 6.2 mi North 9.2 mph - N/A   Scattered Clouds
6:30 PM 78.8 °F - 73.4 °F 83% 29.80 in 6.2 mi NNW 6.9 mph - N/A   Scattered Clouds
7:00 PM 77 °F - 73 °F 83% 29.82 in - NNW 5.8 mph - -  
7:00 PM 77.0 °F - 73.4 °F 89% 29.80 in 6.2 mi NNW 5.8 mph - N/A   Partly Cloudy
7:30 PM 77.0 °F - 73.4 °F 89% 29.80 in 6.2 mi NW 4.6 mph - N/A   Partly Cloudy
8:00 PM 77.0 °F - 71.6 °F 83% 29.80 in 6.2 mi NNW 4.6 mph - N/A   Partly Cloudy
8:30 PM 77.0 °F - 71.6 °F 83% 29.83 in 6.2 mi West 4.6 mph - N/A   Partly Cloudy
9:00 PM 76 °F - 72 °F 84% 29.84 in 9 mi NW 4.6 mph - -   Haze
9:00 PM 77.0 °F - 71.6 °F 83% 29.83 in 6.2 mi NW 4.6 mph - N/A   Mostly Cloudy
9:30 PM 77.0 °F - 71.6 °F 83% 29.83 in 6.2 mi WNW 4.6 mph - N/A   Mostly Cloudy
10:00 PM 77.0 °F - 73.4 °F 89% 29.86 in 6.2 mi NW 4.6 mph - N/A   Mostly Cloudy
10:30 PM 77.0 °F - 73.4 °F 89% 29.83 in 6.2 mi Calm Calm - N/A   Mostly Cloudy
11:00 PM 73.4 °F - 71.6 °F 94% 29.86 in 6.2 mi NNW 1.2 mph - N/A   Mostly Cloudy
11:30 PM 75.2 °F - 71.6 °F 89% 29.83 in 6.2 mi West 4.6 mph - N/A   Mostly Cloudy